Tracy, MN

7:26 AM CST on December 11, 2016 (GMT -0600)
Tracy

Weather History for KTKC - June, 2013

Change the Weather History Date:

Sunday, June 16, 2013

  Actual Average (KMML) Record (KMML)
Temperature  
Mean Temperature 72 °F -  
Max Temperature 86 °F 77 °F 96 °F (1959)
Min Temperature 59 °F 55 °F 43 °F (1974)
Cooling Degree Days 8    
Growing Degree Days 22 (Base 50)    
Moisture  
Dew Point 47 °F    
Average Humidity 40    
Maximum Humidity 68    
Minimum Humidity 21    
Precipitation  
Precipitation 0.00 in - - ()
Sea Level Pressure  
Sea Level Pressure 29.95 in    
Wind  
Wind Speed 1 mph (WNW)    
Max Wind Speed 9 mph    
Max Gust Speed 22 mph    
Visibility 10 miles    
Events      
Averages and records for this station are not official NWS values.
T = Trace of Precipitation, MM = Missing Value Source: NWS Daily Summary

Daily Weather History Graph

Daily Weather History Graph

Search for Another Location

Airport or City:

Trip Planner

Search our weather history database for the weather conditions in past years. The results will help you decide how hot, cold, wet, or windy it might be!

Date:

Astronomy

Jun. 16, 2013 Rise Set
Actual Time 5:38 AM CDT 9:08 PM CDT
Civil Twilight 5:01 AM CDT 9:45 PM CDT
Nautical Twilight 4:13 AM CDT 10:33 PM CDT
Astronomical Twilight 3:11 AM CDT 11:35 PM CDT
Moon 1:31 PM CDT (6/16) 12:58 AM CDT (6/16)
Length of Visible Light 16h 43m
Length of Day
15h 30m
Waxing Crescent, 50% of the Moon is Illuminated
Jun 16
Waxing Crescent
Jun 16
First Quarter
Jun 23
Full
Jun 29
Last Quarter
Jul 8
New

Hourly Weather History & Observations

Time (CDT) Temp. Dew Point Humidity Pressure Visibility Wind Dir Wind Speed Gust Speed Precip Events Conditions
12:13 AM 64.2 °F 52.2 °F 65% 29.96 in 10.0 mi Calm Calm - N/A   Clear
12:34 AM 64.8 °F 51.3 °F 62% 29.96 in 10.0 mi Calm Calm - N/A   Clear
12:54 AM 63.0 °F 52.0 °F 67% 29.95 in 10.0 mi Calm Calm - N/A   Clear
1:14 AM 63.0 °F 52.0 °F 67% 29.95 in 10.0 mi Calm Calm - N/A   Clear
1:33 AM 62.4 °F 51.6 °F 68% 29.96 in 10.0 mi Calm Calm - N/A   Clear
1:54 AM 63.7 °F 50.2 °F 61% 29.95 in 10.0 mi Calm Calm - N/A   Clear
2:13 AM 66.2 °F 49.5 °F 55% 29.94 in 10.0 mi Calm Calm - N/A   Clear
2:33 AM 66.6 °F 48.2 °F 52% 29.95 in 10.0 mi Calm Calm - N/A   Clear
2:54 AM 66.4 °F 47.8 °F 51% 29.95 in 10.0 mi Calm Calm - N/A   Clear
3:13 AM 65.3 °F 47.8 °F 53% 29.96 in 10.0 mi Calm Calm - N/A   Clear
3:34 AM 65.5 °F 47.5 °F 52% 29.95 in 10.0 mi Calm Calm - N/A   Clear
3:53 AM 64.4 °F 47.5 °F 54% 29.97 in 10.0 mi Calm Calm - N/A   Clear
4:13 AM 66.0 °F 46.9 °F 50% 29.97 in 10.0 mi Calm Calm - N/A   Clear
4:33 AM 65.3 °F 46.9 °F 51% 29.95 in 10.0 mi Calm Calm - N/A   Clear
4:54 AM 63.7 °F 47.3 °F 55% 29.96 in 10.0 mi Calm Calm - N/A   Clear
5:14 AM 64.0 °F 46.9 °F 54% 29.96 in 10.0 mi Calm Calm - N/A   Clear
5:33 AM 60.8 °F 47.7 °F 62% 29.97 in 10.0 mi Calm Calm - N/A   Clear
5:53 AM 59.9 °F 48.2 °F 65% 29.97 in 10.0 mi Calm Calm - N/A   Clear
6:14 AM 60.8 °F 48.0 °F 63% 29.98 in 10.0 mi Calm Calm - N/A   Clear
6:34 AM 62.1 °F 48.7 °F 62% 29.97 in 10.0 mi Calm Calm - N/A   Clear
6:54 AM 64.4 °F 49.1 °F 58% 29.97 in 10.0 mi Calm Calm - N/A   Clear
7:14 AM 66.6 °F 49.5 °F 54% 29.97 in 10.0 mi Calm Calm - N/A   Clear
7:34 AM 68.7 °F 48.0 °F 48% 29.98 in 10.0 mi Calm Calm - N/A   Clear
7:54 AM 70.7 °F 48.7 °F 46% 29.98 in 10.0 mi Calm Calm - N/A   Clear
8:13 AM 72.5 °F 48.0 °F 42% 29.98 in 10.0 mi Calm Calm - N/A   Clear
8:33 AM 74.1 °F 49.6 °F 42% 29.98 in 10.0 mi Calm Calm - N/A   Clear
8:53 AM 75.7 °F 48.6 °F 38% 29.98 in 10.0 mi Calm Calm - N/A   Clear
9:14 AM 76.5 °F 48.2 °F 37% 29.99 in 10.0 mi Calm Calm - N/A   Clear
9:33 AM 77.9 °F 49.1 °F 36% 29.99 in 10.0 mi Calm Calm - N/A   Clear
9:54 AM 79.0 °F 48.2 °F 34% 29.98 in 10.0 mi Calm Calm - N/A   Clear
10:13 AM 79.7 °F 47.1 °F 32% 29.98 in 10.0 mi Calm Calm - N/A   Clear
10:34 AM 81.5 °F 46.4 °F 29% 29.97 in 10.0 mi WNW 5.8 mph 20.7 mph N/A   Clear
10:54 AM 81.1 °F 45.9 °F 29% 29.97 in 10.0 mi WNW 9.2 mph 20.7 mph N/A   Clear
11:14 AM 81.7 °F 46.0 °F 29% 29.96 in 10.0 mi WNW 5.8 mph - N/A   Clear
11:33 AM 83.5 °F 43.0 °F 24% 29.96 in 10.0 mi Calm Calm - N/A   Clear
11:53 AM 84.6 °F 43.3 °F 23% 29.96 in 10.0 mi NW 9.2 mph 17.3 mph N/A   Clear
12:14 PM 84.4 °F 44.4 °F 25% 29.95 in 10.0 mi NW 5.8 mph 21.9 mph N/A   Clear
12:33 PM 84.2 °F 43.2 °F 24% 29.96 in 10.0 mi Calm Calm - N/A   Clear
12:53 PM 84.4 °F 43.3 °F 24% 29.96 in 10.0 mi Calm Calm - N/A   Clear
1:14 PM 84.6 °F 43.2 °F 23% 29.96 in 10.0 mi WNW 4.6 mph 17.3 mph N/A   Clear
1:34 PM 85.1 °F 42.4 °F 22% 29.97 in 10.0 mi Calm Calm - N/A   Clear
1:53 PM 86.0 °F 43.0 °F 22% 29.96 in 10.0 mi Calm Calm - N/A   Clear
2:13 PM 86.0 °F 43.7 °F 23% 29.97 in 10.0 mi Calm Calm - N/A   Clear
2:33 PM 85.1 °F 45.5 °F 25% 29.97 in 10.0 mi Calm Calm - N/A   Clear
2:54 PM 84.7 °F 43.9 °F 24% 29.96 in 10.0 mi Calm Calm - N/A   Scattered Clouds
3:14 PM 84.7 °F 42.4 °F 23% 29.96 in 10.0 mi Calm Calm - N/A   Clear
3:33 PM 84.6 °F 41.0 °F 21% 29.95 in 10.0 mi West 5.8 mph - N/A   Scattered Clouds
3:53 PM 84.4 °F 41.0 °F 22% 29.95 in 10.0 mi Calm Calm - N/A   Scattered Clouds
4:13 PM 84.2 °F 41.9 °F 22% 29.95 in 10.0 mi WNW 3.5 mph - N/A   Clear
4:34 PM 84.0 °F 42.4 °F 23% 29.94 in 10.0 mi Calm Calm - N/A   Clear
4:53 PM 84.0 °F 42.6 °F 23% 29.94 in 10.0 mi Calm Calm - N/A   Clear
5:14 PM 84.4 °F 42.3 °F 23% 29.92 in 10.0 mi Calm Calm - N/A   Clear
5:33 PM 84.6 °F 42.8 °F 23% 29.92 in 10.0 mi WSW 5.8 mph - N/A   Clear
5:54 PM 84.2 °F 45.0 °F 25% 29.92 in 10.0 mi Calm Calm - N/A   Clear
6:13 PM 83.5 °F 48.4 °F 29% 29.92 in 10.0 mi Calm Calm - N/A   Clear
6:33 PM 82.8 °F 47.8 °F 29% 29.91 in 10.0 mi West 3.5 mph - N/A   Clear
6:54 PM 82.8 °F 48.6 °F 30% 29.91 in 10.0 mi Calm Calm - N/A   Clear
7:14 PM 82.4 °F 47.5 °F 29% 29.91 in 10.0 mi Calm Calm - N/A   Clear
7:34 PM 81.7 °F 45.3 °F 28% 29.91 in 10.0 mi Calm Calm - N/A   Clear
7:54 PM 81.1 °F 46.4 °F 29% 29.90 in 10.0 mi Calm Calm - N/A   Clear
8:14 PM 80.4 °F 47.1 °F 31% 29.91 in 10.0 mi Calm Calm - N/A   Clear
8:34 PM 79.5 °F 48.2 °F 33% 29.92 in 10.0 mi Calm Calm - N/A   Clear
8:53 PM 77.4 °F 49.6 °F 38% 29.93 in 10.0 mi Calm Calm - N/A   Clear
9:13 PM 76.3 °F 47.5 °F 36% 29.93 in 10.0 mi Calm Calm - N/A   Clear
9:34 PM 74.3 °F 49.3 °F 41% 29.94 in 10.0 mi Calm Calm - N/A   Clear
9:53 PM 72.9 °F 50.4 °F 45% 29.94 in 10.0 mi Calm Calm - N/A   Clear
10:14 PM 71.8 °F 51.1 °F 48% 29.94 in 10.0 mi Calm Calm - N/A   Clear
10:33 PM 72.7 °F 50.4 °F 45% 29.93 in 10.0 mi Calm Calm - N/A   Clear
10:54 PM 70.7 °F 51.1 °F 50% 29.94 in 10.0 mi Calm Calm - N/A   Clear
11:14 PM 69.8 °F 51.4 °F 52% 29.94 in 10.0 mi Calm Calm - N/A   Clear
11:33 PM 70.0 °F 51.6 °F 52% 29.94 in 10.0 mi Calm Calm - N/A   Clear
11:53 PM 69.4 °F 52.0 °F 54% 29.95 in 10.0 mi SW 3.5 mph - N/A   Clear